Location: Temiskaming Shores
(47.4794°N, 79.7121°W)
Time: 08:07:09
(UTC-04:00)

ISS - Visible Passes

Search period start: 24 July 2024 00:00
Search period end: 03 August 2024 00:00
Orbit: 409 x 423 km, 51.6° (Epoch: 24 July)

Date Brightness Start Highest point End Pass type
(mag) Time Alt. Az. Time Alt. Az. Time Alt. Az.
24 Jul -3.8 21:37:51 10° WNW 21:41:10 89° SSW 21:44:29 10° ESE visible
24 Jul -1.8 23:15:15 10° W 23:17:31 17° SW 23:17:38 17° SW visible
25 Jul -2.4 22:26:12 10° W 22:29:04 27° SW 22:30:45 17° S visible
26 Jul -3.0 21:37:23 10° WNW 21:40:31 41° SSW 21:43:39 10° SE visible
27 Jul -1.2 22:26:49 10° WSW 22:28:03 12° SW 22:29:18 10° SSW visible
28 Jul -1.6 21:37:09 10° W 21:39:33 19° SW 21:41:56 10° S visible
